Gao Fen 14-02

operational
NORAD ID: 66175 Int'l Des: 2025-242 Owner: YWZB Country: CN
LEOCIRCULARRETROGRADESSO

Gao Fen 14-02について

説明を読み込み中...

リアルタイム位置

3D地球を読み込み中...

次回通過

高度履歴

Altitude vs Time

uPlot chart will show altitude changes over time

軌道要素

1 66175U 25242A 25301.10588829 .00014793 00000-0 55401-3 0 9994
2 66175 97.4398 13.2893 0010327 261.9781 98.0286 15.27335919 301
Epoch: Oct 28, 2025 • Age: 78 hours

現在のステータス

高度 487.6 km
速度 7.62 km/s
衛星直下点 25.80°N, 36.35°E
打ち上げ日 Oct 26, 2025
運用期間 5 days
タイプ other

技術仕様

分類 Payload
質量 6500.00 kg
乾燥質量 5500.00 kg
総質量 6500.00 kg
長さ 6.00 m
直径 2.50 m
スパン 15.00 m
形状 Box + 2 Pan
製造者 CAST
バスタイプ GF-14
フェーズステータス In Orbit
所有者/国 YWZB/CN

大規模コンステレーション

Loading constellations...